Location: Corralito
(10.2667°N, 66.9500°W)
Time: 12:47:27
(UTC+00:00)

GPS 2-12 Rocket1 - Pass Details

Date: 12 December 2023
Orbit: 576 x 637 km, 20.0° (Epoch: 04 March)

Event Time Altitude Azimuth Distance (km) Brightness Sun altitude
Exits shadow 08:33:36 32° 154° (SSE) 985 4.4 -28.7°
Drops below altitude 10° 08:36:20 10° 128° (SE) 1,871 6.4 -28.0°
Sets 08:38:42 0° 122° (ESE) 2,766 7.6 -27.5°
